Location: Oberkirch
(48.5323°N, 8.0787°E)
Time: 18:23:30
(UTC+00:00)

SL-24 R/B - RUBIN 2 - Pass Details

Date: 08 November 2025
Orbit: 599 x 987 km, 64.6° (Epoch: 10 December)

Event Time Altitude Azimuth Distance (km) Brightness Sun altitude
Exits shadow 04:39:26 31° 282° (WNW) 1,290 4.6 -17.6°
Maximum altitude 04:40:56 38° 319° (NW) 1,111 4.5 -17.4°
Drops below altitude 10° 04:45:29 10° 28° (NNE) 2,136 6.6 -16.6°
Sets 04:47:51 0° 37° (NE) 3,002 7.5 -16.2°
